Wetterdaten Winter 2023/2024

Datum T max T min Regen
01.12.2023 2.3 °C 0.1 °C 3.4 mm
02.12.2023 0.1 °C -3.3 °C 0.4 mm
03.12.2023 -0.8 °C -4.3 °C 0 mm
04.12.2023 0.7 °C -5.1 °C 0.8 mm
05.12.2023 8.7 °C 0.7 °C 1.8 mm
06.12.2023 4.5 °C 2.2 °C 2 mm
07.12.2023 5 °C -1.4 °C 0 mm
08.12.2023 6.3 °C 1.5 °C 2.8 mm
09.12.2023 9.8 °C 4.7 °C 6.2 mm
10.12.2023 10.2 °C 7.3 °C 1 mm
11.12.2023 12.6 °C 8.6 °C 1.6 mm
12.12.2023 9.7 °C 5.2 °C 13 mm
13.12.2023 10.3 °C 6.2 °C 5.4 mm
14.12.2023 8.2 °C 4.3 °C 1.8 mm
15.12.2023 7 °C 3.8 °C 0.6 mm
16.12.2023 7 °C 0.7 °C 0.2 mm
17.12.2023 5.9 °C -0.6 °C 0 mm
18.12.2023 5.3 °C -2.4 °C 0 mm
19.12.2023 4.6 °C -2.8 °C 0.2 mm
20.12.2023 6.4 °C 4.2 °C 3.8 mm
21.12.2023 10.7 °C 5.4 °C 2.8 mm
22.12.2023 9.7 °C 6 °C 3.2 mm
23.12.2023 9.7 °C 7.9 °C 0.6 mm
24.12.2023 11.4 °C 9 °C 0.8 mm
25.12.2023 11.8 °C 8.9 °C 0 mm
26.12.2023 10.6 °C 8.2 °C 0 mm
27.12.2023 10.6 °C 4.1 °C 0.2 mm
28.12.2023 10 °C 3.6 °C 0.2 mm
29.12.2023 12.2 °C 8.4 °C 0.6 mm
30.12.2023 10.9 °C 6.3 °C 1.4 mm
31.12.2023 9.3 °C 3.2 °C 0.8 mm
01.01.2024 8.7 °C 5.1 °C 0 mm
02.01.2024 10.8 °C 6.7 °C 1.6 mm
03.01.2024 12.4 °C 8.1 °C 2.4 mm
04.01.2024 9.6 °C 6.3 °C 0.8 mm
05.01.2024 9.4 °C 4 °C 0 mm
06.01.2024 5.4 °C 3.8 °C 0 mm
07.01.2024 4.8 °C -2.3 °C 0 mm
08.01.2024 -1.2 °C -4.7 °C 0 mm
09.01.2024 -0.2 °C -6.8 °C 0 mm
10.01.2024 -0.1 °C -5.1 °C 0.2 mm
11.01.2024 -0.2 °C -7.2 °C 0 mm
12.01.2024 -2.3 °C -8 °C 0 mm
13.01.2024 -2.1 °C -3.9 °C 0 mm
14.01.2024 -0.4 °C -4.2 °C 0.2 mm
15.01.2024 1.3 °C -3.2 °C 0.8 mm
16.01.2024 1.7 °C -5.3 °C 0 mm
17.01.2024 10.4 °C -5.4 °C 4 mm
18.01.2024 9.7 °C -1.8 °C 5 mm
19.01.2024 0.1 °C -2.9 °C 0 mm
20.01.2024 0.3 °C -4.8 °C 0 mm
21.01.2024 5.1 °C -6.3 °C 0 mm
22.01.2024 12.2 °C 3.6 °C 2 mm
23.01.2024 9.4 °C 5.8 °C 1.6 mm
24.01.2024 13.7 °C 8.1 °C 0 mm
25.01.2024 11.2 °C 6.1 °C 0 mm
26.01.2024 11.4 °C 3.7 °C 1.2 mm
27.01.2024 7.1 °C -1.2 °C 0 mm
28.01.2024 10.7 °C -2.2 °C 0 mm
29.01.2024 12.6 °C -0.7 °C 0 mm
30.01.2024 10.1 °C 0.1 °C 0 mm
31.01.2024 9.8 °C 6.6 °C 0 mm
01.02.2024 9.7 °C 4.9 °C 4.8 mm
02.02.2024 11.3 °C 2.4 °C 0 mm
03.02.2024 9.1 °C 1.8 °C 0.4 mm
04.02.2024 11.3 °C 7.8 °C 0 mm
05.02.2024 12.1 °C 3.3 °C 0 mm
06.02.2024 11.2 °C 3.3 °C 0 mm
07.02.2024 11.3 °C 7.8 °C 2 mm
08.02.2024 13.1 °C 8.4 °C 4 mm
09.02.2024 13.6 °C 9.2 °C 7 mm
10.02.2024 10.3 °C 7.8 °C 0.6 mm
11.02.2024 11 °C 5.9 °C 6.2 mm
12.02.2024 9.7 °C 6.2 °C 0 mm
13.02.2024 10.7 °C 3.5 °C 0 mm
14.02.2024 13.8 °C 2.6 °C 0 mm
15.02.2024 16.4 °C 8.9 °C 0 mm
16.02.2024 16.6 °C 8.7 °C 0.8 mm
17.02.2024 13.7 °C 8 °C 2.4 mm
18.02.2024 13.1 °C 4.8 °C 5.2 mm
19.02.2024 11.1 °C 8.4 °C 1.6 mm
20.02.2024 11.1 °C 6.4 °C 0 mm
21.02.2024 12.3 °C 4.2 °C 0.4 mm
22.02.2024 12.4 °C 7.7 °C 6.2 mm
23.02.2024 8.6 °C 3.7 °C 0 mm
24.02.2024 10.3 °C 1.6 °C 0 mm
 Hinweis zur Datenqualität
∅ Temperatur

5.4 °C

Abweichung vom Mittel

+3.4 °C

Niederschlag

117 mm

Abweichung vom Mittel

94 %

16.6 °C

Lufttemperatur
16.02.2024

1044 hPa

Luftdruck
16.12.2023

37.1 km/h

Windböen
22.12.2023

117 mm

Niederschlag
 

-8 °C

Lufttemperatur
12.01.2024

-7.8 °C

Bodentemperatur 5cm
12.01.2024

985 hPa

Luftdruck
10.02.2024
 Hinweis zur Datenqualität